User: anonymous   Login
Location: Heisler
(52.6701°N, 112.2239°W)
Time: 14:59:55
(UTC+00:00)
Language:

Envisat - Orbit

View from above orbital plane
View from above orbital plane
View from above satellite
View from above satellite

Ground track
Ground track

The orbit data is extracted from the following two-line orbital elements,

1 27386U 02009A   22026.23018398  .00000082  00000-0  40739-4 0  9990
2 27386  98.1690  14.1261 0001181  87.0519 283.5046 14.38071266 43099
Epoch (UTC): 26 January 2022 05:31:27
Eccentricity: 0.0001181
inclination: 98.1690°
perigee height: 764 km
apogee height: 766 km
right ascension of ascending node: 14.1261°
argument of perigee: 87.0519°
revolutions per day: 14.38071266
mean anomaly at epoch: 283.5046°
orbit number at epoch: 4309

The dashed part of the orbit path shows where the satellite is in the earth's shadow,  

DLR